NDF79C LEPA-EDDH

Flight info

Callsign NDF79C
Flight time 2h 27m
Altitude 36000
Route MEROS5A MEROS N853 LUMAS DCT MAXIR DCT LUSOL DCT BODRU DCT OKTET DCT IRMAR DCT KINES DCT VANAS DCT ESOKO DCT GODRA/N0445F370 DCT LOKTA DCT TEDGO DCT HAREM DCT LOHRE DCT ELNAT/N0444F360 P605 NOLGO NOLGO3P
Aircraft A320/M-SDE3FGHIRWY/LB1

Departure

Time 2026-05-04 14:24
Airport Palma de Mallorca Airport (LEPA)

Arrival

Time 2026-05-04 16:52
Airport Hamburg Helmut Schmidt Airport (EDDH)
Time Latitude Longitude Altitude Speed Heading
2026-05-04 13:49 39.54983 2.73392 39 ft 0 kts 165°
2026-05-04 14:12 39.55028 2.73394 34 ft 4 kts 213°
2026-05-04 14:13 39.55048 2.73417 35 ft 4 kts 235°
2026-05-04 14:13 39.55054 2.73427 34 ft 0 kts 238°
2026-05-04 14:15 39.55049 2.73417 35 ft 6 kts 238°
2026-05-04 14:15 39.55071 2.73369 38 ft 3 kts 44°
2026-05-04 14:16 39.55088 2.73401 38 ft 6 kts 56°
2026-05-04 14:16 39.55132 2.73496 38 ft 13 kts 59°
2026-05-04 14:17 39.55233 2.73591 38 ft 9 kts 329°
2026-05-04 14:17 39.55336 2.73509 38 ft 22 kts 328°
2026-05-04 14:17 39.55499 2.73561 38 ft 10 kts 41°
2026-05-04 14:18 39.55554 2.73551 38 ft 9 kts 330°
2026-05-04 14:18 39.55709 2.73610 38 ft 15 kts 58°
2026-05-04 14:19 39.55812 2.73833 38 ft 20 kts 59°
2026-05-04 14:19 39.55912 2.74042 36 ft 31 kts 58°
2026-05-04 14:19 39.56004 2.74234 38 ft 16 kts 50°
2026-05-04 14:19 39.56082 2.74296 36 ft 8 kts 26°
2026-05-04 14:20 39.56127 2.74325 38 ft 6 kts 27°
2026-05-04 14:20 39.56137 2.74332 36 ft 0 kts 27°
2026-05-04 14:21 39.56143 2.74335 37 ft 7 kts 25°
2026-05-04 14:21 39.56216 2.74320 37 ft 11 kts 316°
2026-05-04 14:22 39.56213 2.74237 36 ft 9 kts 240°
2026-05-04 14:22 39.56202 2.74214 38 ft 0 kts 238°
2026-05-04 14:23 39.56201 2.74212 38 ft 5 kts 238°
2026-05-04 14:23 39.56048 2.73891 38 ft 78 kts 238°
2026-05-04 14:24 39.55662 2.73071 38 ft 133 kts 239°
2026-05-04 14:24 39.55104 2.71888 107 ft 168 kts 238°
2026-05-04 14:24 39.54505 2.70637 770 ft 160 kts 238°
2026-05-04 14:24 39.53913 2.69419 1400 ft 162 kts 238°
2026-05-04 14:25 39.53299 2.68175 1938 ft 166 kts 238°
2026-05-04 14:25 39.52017 2.65616 3091 ft 171 kts 237°
2026-05-04 14:25 39.51372 2.64308 3581 ft 177 kts 239°
2026-05-04 14:26 39.50680 2.62878 3783 ft 199 kts 230°
2026-05-04 14:26 39.49471 2.61876 3938 ft 222 kts 191°
2026-05-04 14:26 39.47849 2.61783 4190 ft 246 kts 180°
2026-05-04 14:26 39.46064 2.61824 4618 ft 264 kts 179°
2026-05-04 14:27 39.44209 2.61878 5350 ft 269 kts 179°
2026-05-04 14:27 39.42328 2.61929 6124 ft 272 kts 179°
2026-05-04 14:27 39.40424 2.61974 6894 ft 275 kts 179°
2026-05-04 14:27 39.38500 2.62101 7642 ft 279 kts 171°
2026-05-04 14:28 39.36641 2.62863 8368 ft 283 kts 153°
2026-05-04 14:28 39.35020 2.64318 9088 ft 286 kts 136°
2026-05-04 14:28 39.33580 2.66116 9806 ft 289 kts 136°
2026-05-04 14:28 39.32112 2.67940 10335 ft 301 kts 136°
2026-05-04 14:29 39.28854 2.71961 10645 ft 346 kts 135°
2026-05-04 14:29 39.26858 2.77556 11671 ft 360 kts 92°
2026-05-04 14:30 39.26811 2.80804 12307 ft 363 kts 90°
2026-05-04 14:30 39.26795 2.84080 12931 ft 367 kts 90°
2026-05-04 14:30 39.27507 2.90618 14113 ft 373 kts 71°
2026-05-04 14:31 39.28552 2.93695 14684 ft 376 kts 60°
2026-05-04 14:31 39.31188 2.99585 15802 ft 382 kts 60°
2026-05-04 14:32 39.33858 3.05583 16885 ft 388 kts 60°
2026-05-04 14:32 39.35280 3.08564 17395 ft 391 kts 52°
2026-05-04 14:32 39.37204 3.11051 17893 ft 394 kts 40°
2026-05-04 14:32 39.39298 3.13356 18402 ft 397 kts 40°
2026-05-04 14:33 39.41421 3.15669 18902 ft 400 kts 40°
2026-05-04 14:33 39.43563 3.17994 19395 ft 403 kts 40°
2026-05-04 14:33 39.45716 3.20335 19866 ft 407 kts 40°
2026-05-04 14:33 39.47887 3.22701 20345 ft 409 kts 40°
2026-05-04 14:34 39.50069 3.25084 20799 ft 412 kts 40°
2026-05-04 14:34 39.52263 3.27484 21238 ft 414 kts 40°
2026-05-04 14:34 39.54470 3.29901 21667 ft 417 kts 40°
2026-05-04 14:34 39.56688 3.32332 22082 ft 419 kts 40°
2026-05-04 14:35 39.58919 3.34778 22475 ft 421 kts 40°
2026-05-04 14:35 39.61163 3.37243 22861 ft 424 kts 40°
2026-05-04 14:35 39.63419 3.39725 23242 ft 426 kts 40°
2026-05-04 14:35 39.65681 3.42222 23597 ft 429 kts 40°
2026-05-04 14:36 39.67963 3.44737 23942 ft 431 kts 40°
2026-05-04 14:36 39.70253 3.47258 24291 ft 433 kts 40°
2026-05-04 14:36 39.72555 3.49796 24618 ft 435 kts 40°
2026-05-04 14:36 39.74861 3.52345 24933 ft 437 kts 40°
2026-05-04 14:37 39.77182 3.54912 25242 ft 439 kts 40°
2026-05-04 14:37 39.79514 3.57494 25542 ft 441 kts 40°
2026-05-04 14:37 39.81852 3.60086 25834 ft 443 kts 40°
2026-05-04 14:37 39.84198 3.62689 26120 ft 445 kts 40°
2026-05-04 14:38 39.86559 3.65311 26389 ft 447 kts 40°
2026-05-04 14:38 39.88926 3.67940 26668 ft 448 kts 40°
2026-05-04 14:38 39.91305 3.70585 26931 ft 450 kts 40°
2026-05-04 14:38 39.93688 3.73236 27184 ft 452 kts 40°
2026-05-04 14:39 39.96051 3.75866 27427 ft 454 kts 40°
2026-05-04 14:39 39.98486 3.78581 27672 ft 455 kts 40°
2026-05-04 14:39 40.00866 3.81234 27900 ft 457 kts 40°
2026-05-04 14:40 40.05709 3.86643 28334 ft 460 kts 40°
2026-05-04 14:40 40.08144 3.89368 28549 ft 461 kts 40°
2026-05-04 14:40 40.10580 3.92097 28750 ft 463 kts 40°
2026-05-04 14:40 40.13026 3.94841 28941 ft 464 kts 40°
2026-05-04 14:41 40.15477 3.97596 29132 ft 465 kts 40°
2026-05-04 14:41 40.17925 4.00350 29394 ft 464 kts 40°
2026-05-04 14:41 40.22810 4.05846 29904 ft 463 kts 40°
2026-05-04 14:42 40.27683 4.11340 30400 ft 462 kts 40°
2026-05-04 14:42 40.30114 4.14085 30643 ft 461 kts 40°
2026-05-04 14:42 40.32537 4.16829 30878 ft 461 kts 40°
2026-05-04 14:43 40.34961 4.19575 31120 ft 460 kts 40°
2026-05-04 14:43 40.37383 4.22318 31356 ft 460 kts 40°
2026-05-04 14:43 40.39801 4.25055 31592 ft 459 kts 40°
2026-05-04 14:43 40.42214 4.27793 31821 ft 459 kts 40°
2026-05-04 14:44 40.44625 4.30538 32052 ft 458 kts 40°
2026-05-04 14:44 40.47089 4.33187 32279 ft 458 kts 35°
2026-05-04 14:44 40.49764 4.35342 32499 ft 457 kts 26°
2026-05-04 14:44 40.52679 4.36972 32704 ft 456 kts 18°
2026-05-04 14:45 40.55741 4.38025 32919 ft 455 kts 10°
2026-05-04 14:45 40.58859 4.38761 33127 ft 455 kts 10°
2026-05-04 14:45 40.61977 4.39502 33338 ft 455 kts 10°
2026-05-04 14:45 40.65087 4.40250 33548 ft 454 kts 10°
2026-05-04 14:46 40.68196 4.40999 33751 ft 454 kts 10°
2026-05-04 14:46 40.71300 4.41747 33966 ft 453 kts 10°
2026-05-04 14:46 40.73354 4.42241 34103 ft 453 kts 10°
2026-05-04 14:46 40.76454 4.42990 34313 ft 453 kts 10°
2026-05-04 14:47 40.79551 4.43739 34514 ft 452 kts 10°
2026-05-04 14:47 40.82643 4.44485 34713 ft 452 kts 10°
2026-05-04 14:47 40.85737 4.45229 34904 ft 451 kts 10°
2026-05-04 14:47 40.88826 4.45972 35086 ft 451 kts 10°
2026-05-04 14:48 40.91912 4.46717 35261 ft 451 kts 10°
2026-05-04 14:48 40.94995 4.47461 35430 ft 450 kts 10°
2026-05-04 14:48 40.98079 4.48204 35592 ft 450 kts 10°
2026-05-04 14:48 41.01157 4.48949 35747 ft 450 kts 10°
2026-05-04 14:49 41.04232 4.49697 35918 ft 449 kts 10°
2026-05-04 14:49 41.07303 4.50445 35999 ft 450 kts 10°
2026-05-04 14:49 41.13466 4.51944 36008 ft 450 kts 10°
2026-05-04 14:50 41.19627 4.53451 36008 ft 450 kts 10°
2026-05-04 14:50 41.25753 4.54943 36008 ft 450 kts 10°
2026-05-04 14:51 41.31923 4.56450 36009 ft 452 kts 10°
2026-05-04 14:51 41.38125 4.57977 36010 ft 454 kts 10°
2026-05-04 14:52 41.44334 4.59508 36013 ft 454 kts 10°
2026-05-04 14:52 41.50551 4.61039 36016 ft 454 kts 10°
2026-05-04 14:53 41.56766 4.62568 36018 ft 454 kts 10°
2026-05-04 14:53 41.62988 4.64100 36020 ft 455 kts 10°
2026-05-04 14:54 41.69205 4.65638 36021 ft 455 kts 10°
2026-05-04 14:54 41.75201 4.68242 36020 ft 454 kts 27°
2026-05-04 14:55 41.80641 4.72555 36019 ft 455 kts 31°
2026-05-04 14:55 41.86073 4.76908 36020 ft 455 kts 31°
2026-05-04 14:56 41.91510 4.81264 36020 ft 455 kts 31°
2026-05-04 14:56 41.96940 4.85640 36021 ft 455 kts 31°
2026-05-04 14:57 42.02328 4.90011 36022 ft 455 kts 31°
2026-05-04 14:57 42.07753 4.94410 36023 ft 455 kts 31°
2026-05-04 14:58 42.13178 4.98813 36023 ft 455 kts 31°
2026-05-04 14:58 42.18602 5.03227 36023 ft 455 kts 31°
2026-05-04 14:59 42.24024 5.07656 36024 ft 455 kts 31°
2026-05-04 15:00 42.32156 5.14300 36024 ft 455 kts 31°
2026-05-04 15:00 42.37572 5.18745 36025 ft 455 kts 31°
2026-05-04 15:01 42.45698 5.25421 36025 ft 455 kts 31°
2026-05-04 15:01 42.51114 5.29877 36025 ft 455 kts 31°
2026-05-04 15:02 42.56530 5.34345 36025 ft 455 kts 31°
2026-05-04 15:02 42.61940 5.38817 36025 ft 455 kts 31°
2026-05-04 15:03 42.67353 5.43297 36025 ft 455 kts 31°
2026-05-04 15:03 42.72723 5.47764 36026 ft 456 kts 31°
2026-05-04 15:04 42.78129 5.52263 36026 ft 456 kts 31°
2026-05-04 15:04 42.83535 5.56766 36025 ft 456 kts 31°
2026-05-04 15:05 42.88936 5.61292 36026 ft 456 kts 31°
2026-05-04 15:05 42.94334 5.65820 36025 ft 456 kts 31°
2026-05-04 15:06 42.99738 5.70345 36026 ft 456 kts 31°
2026-05-04 15:07 43.07838 5.77141 36026 ft 456 kts 31°
2026-05-04 15:07 43.13231 5.81699 36026 ft 456 kts 31°
2026-05-04 15:08 43.18589 5.86243 36021 ft 456 kts 31°
2026-05-04 15:08 43.23991 5.90819 36011 ft 457 kts 31°
2026-05-04 15:09 43.29407 5.95408 36014 ft 458 kts 31°
2026-05-04 15:09 43.34826 6.00022 36016 ft 458 kts 31°
2026-05-04 15:10 43.40593 6.03647 36018 ft 457 kts 14°
2026-05-04 15:10 43.43715 6.04467 36020 ft 456 kts
2026-05-04 15:11 43.53213 6.05426 36022 ft 457 kts
2026-05-04 15:11 43.59553 6.06074 36021 ft 457 kts
2026-05-04 15:12 43.65898 6.06715 36020 ft 457 kts
2026-05-04 15:12 43.72206 6.07350 36022 ft 458 kts
2026-05-04 15:13 43.78446 6.08948 36019 ft 458 kts 20°
2026-05-04 15:13 43.84219 6.12665 36017 ft 458 kts 26°
2026-05-04 15:14 43.89945 6.16567 36016 ft 459 kts 26°
2026-05-04 15:14 43.95685 6.20474 36016 ft 460 kts 26°
2026-05-04 15:15 44.01426 6.24388 36017 ft 460 kts 26°
2026-05-04 15:15 44.07172 6.28332 36017 ft 461 kts 26°
2026-05-04 15:16 44.15796 6.34273 36018 ft 461 kts 26°
2026-05-04 15:17 44.24383 6.40214 36017 ft 462 kts 26°
2026-05-04 15:17 44.33047 6.46214 35995 ft 465 kts 26°
2026-05-04 15:18 44.38856 6.50236 36002 ft 466 kts 26°
2026-05-04 15:19 44.47576 6.56293 36010 ft 467 kts 26°
2026-05-04 15:19 44.56313 6.62387 36015 ft 468 kts 26°
2026-05-04 15:20 44.62152 6.66485 36010 ft 469 kts 26°
2026-05-04 15:20 44.67990 6.70586 36029 ft 469 kts 26°
2026-05-04 15:21 44.73819 6.74695 36032 ft 468 kts 26°
2026-05-04 15:21 44.79804 6.78047 36026 ft 467 kts 12°
2026-05-04 15:22 44.83020 6.78700 36008 ft 467 kts
2026-05-04 15:22 44.92779 6.78203 36011 ft 468 kts 357°
2026-05-04 15:23 44.99287 6.77777 36026 ft 468 kts 357°
2026-05-04 15:23 45.05792 6.77344 36034 ft 468 kts 357°
2026-05-04 15:24 45.18814 6.76479 36010 ft 469 kts 357°
2026-05-04 15:25 45.25332 6.76045 36029 ft 469 kts 357°
2026-05-04 15:26 45.35132 6.75398 35998 ft 471 kts 357°
2026-05-04 15:26 45.44972 6.74731 36016 ft 472 kts 357°
2026-05-04 15:27 45.54758 6.74071 36035 ft 471 kts 357°
2026-05-04 15:28 45.64477 6.73407 36010 ft 464 kts 357°
2026-05-04 15:29 45.74202 6.72740 36008 ft 468 kts 357°
2026-05-04 15:30 45.96769 6.71187 36021 ft 462 kts 357°
2026-05-04 15:31 46.06283 6.70547 36000 ft 464 kts 357°
2026-05-04 15:32 46.15875 6.71461 35978 ft 468 kts 16°
2026-05-04 15:32 46.22146 6.74120 35980 ft 471 kts 16°
2026-05-04 15:34 46.37941 6.80815 35993 ft 475 kts 16°
2026-05-04 15:34 46.47420 6.84856 36032 ft 472 kts 16°
2026-05-04 15:35 46.53586 6.88062 36024 ft 471 kts 28°
2026-05-04 15:35 46.56342 6.90627 36020 ft 471 kts 38°
2026-05-04 15:36 46.62879 7.01161 36010 ft 471 kts 51°
2026-05-04 15:36 46.66993 7.08596 36010 ft 472 kts 51°
2026-05-04 15:37 46.71109 7.16033 36010 ft 472 kts 51°
2026-05-04 15:37 46.75221 7.23485 36008 ft 472 kts 51°
2026-05-04 15:38 46.79330 7.30961 36008 ft 472 kts 51°
2026-05-04 15:38 46.83427 7.38453 36009 ft 472 kts 51°
2026-05-04 15:39 46.87165 7.45303 36013 ft 472 kts 51°
2026-05-04 15:40 46.93301 7.56564 36018 ft 472 kts 51°
2026-05-04 15:40 46.97356 7.64037 36015 ft 472 kts 51°
2026-05-04 15:41 47.01426 7.71561 36016 ft 471 kts 51°
2026-05-04 15:41 47.05493 7.79109 36014 ft 471 kts 51°
2026-05-04 15:42 47.09555 7.86669 36011 ft 472 kts 52°
2026-05-04 15:42 47.13585 7.94271 36011 ft 471 kts 55°
2026-05-04 15:43 47.17095 8.02398 36017 ft 471 kts 58°
2026-05-04 15:43 47.19984 8.09182 36017 ft 471 kts 58°
2026-05-04 15:44 47.23453 8.17349 36014 ft 471 kts 58°
2026-05-04 15:44 47.27483 8.26854 36015 ft 471 kts 58°
2026-05-04 15:45 47.31594 8.34286 36013 ft 470 kts 40°
2026-05-04 15:45 47.36039 8.38962 36012 ft 469 kts 33°
2026-05-04 15:46 47.41504 8.44225 36014 ft 469 kts 33°
2026-05-04 15:46 47.46925 8.49482 36010 ft 469 kts 33°
2026-05-04 15:47 47.52376 8.54775 36010 ft 469 kts 33°
2026-05-04 15:47 47.57825 8.60083 36008 ft 469 kts 33°
2026-05-04 15:48 47.63272 8.65409 36013 ft 469 kts 33°
2026-05-04 15:48 47.71439 8.73402 36010 ft 469 kts 33°
2026-05-04 15:49 47.76882 8.78750 36007 ft 469 kts 33°
2026-05-04 15:49 47.82317 8.84113 36006 ft 469 kts 33°
2026-05-04 15:50 47.87757 8.89495 36006 ft 469 kts 33°
2026-05-04 15:50 47.93193 8.94882 36001 ft 470 kts 33°
2026-05-04 15:51 47.98636 9.00278 36003 ft 470 kts 33°
2026-05-04 15:51 48.04078 9.05701 36002 ft 470 kts 33°
2026-05-04 15:52 48.09487 9.11097 36003 ft 471 kts 33°
2026-05-04 15:52 48.15031 9.16294 36000 ft 470 kts 25°
2026-05-04 15:53 48.21265 9.19048 35999 ft 469 kts
2026-05-04 15:53 48.27751 9.20125 35998 ft 469 kts
2026-05-04 15:54 48.34236 9.21241 35998 ft 470 kts
2026-05-04 15:54 48.40735 9.22344 36000 ft 470 kts
2026-05-04 15:55 48.47230 9.23440 36005 ft 470 kts
2026-05-04 15:55 48.53718 9.24540 36014 ft 469 kts
2026-05-04 15:56 48.60202 9.25638 36018 ft 468 kts
2026-05-04 15:56 48.66637 9.26701 36018 ft 468 kts
2026-05-04 15:57 48.73114 9.27686 36017 ft 468 kts
2026-05-04 15:57 48.79588 9.28651 36015 ft 468 kts
2026-05-04 15:58 48.86063 9.29626 36015 ft 467 kts
2026-05-04 15:58 48.92529 9.30616 36014 ft 467 kts
2026-05-04 15:59 48.99002 9.31627 36012 ft 467 kts
2026-05-04 15:59 49.05463 9.32634 36011 ft 467 kts
2026-05-04 16:00 49.11924 9.33628 36013 ft 467 kts
2026-05-04 16:00 49.18389 9.34629 36012 ft 467 kts
2026-05-04 16:01 49.24801 9.35631 36010 ft 466 kts
2026-05-04 16:01 49.31258 9.36639 36007 ft 466 kts
2026-05-04 16:02 49.37723 9.37651 36005 ft 467 kts
2026-05-04 16:03 49.47410 9.39173 36003 ft 467 kts
2026-05-04 16:03 49.53871 9.40194 36003 ft 467 kts
2026-05-04 16:04 49.60334 9.41212 36000 ft 467 kts
2026-05-04 16:04 49.70039 9.42757 35992 ft 468 kts
2026-05-04 16:05 49.76529 9.43790 35984 ft 469 kts
2026-05-04 16:06 49.86299 9.45355 35993 ft 472 kts
2026-05-04 16:07 49.99347 9.47455 36000 ft 474 kts
2026-05-04 16:08 50.12473 9.49610 36017 ft 475 kts
2026-05-04 16:09 50.28896 9.52550 36027 ft 475 kts
2026-05-04 16:10 50.42030 9.54888 36028 ft 474 kts
2026-05-04 16:11 50.55091 9.57234 36022 ft 474 kts
2026-05-04 16:12 50.74733 9.60754 36019 ft 473 kts
2026-05-04 16:13 50.87810 9.63131 36009 ft 473 kts
2026-05-04 16:14 51.00764 9.65478 36008 ft 456 kts
2026-05-04 16:16 51.16420 9.68359 36008 ft 452 kts
2026-05-04 16:17 51.32082 9.71010 36008 ft 453 kts
2026-05-04 16:18 51.44585 9.72989 36016 ft 453 kts
2026-05-04 16:19 51.60228 9.75893 36021 ft 452 kts
2026-05-04 16:20 51.75866 9.78881 36019 ft 453 kts
2026-05-04 16:22 51.91503 9.81846 36022 ft 453 kts
2026-05-04 16:23 52.10264 9.85513 36024 ft 453 kts
2026-05-04 16:24 52.22713 9.87957 35058 ft 452 kts
2026-05-04 16:25 52.28858 9.90078 34233 ft 454 kts 15°
2026-05-04 16:26 52.41245 9.95524 30340 ft 466 kts 15°
2026-05-04 16:26 52.50579 9.99654 28077 ft 455 kts 15°
2026-05-04 16:27 52.56623 10.02335 26783 ft 445 kts 15°
2026-05-04 16:28 52.65456 10.06267 24932 ft 432 kts 15°
2026-05-04 16:28 52.73984 10.10098 23148 ft 419 kts 15°
2026-05-04 16:29 52.85304 10.12012 21051 ft 402 kts
2026-05-04 16:30 52.93577 10.12298 19668 ft 390 kts
2026-05-04 16:31 52.98950 10.12471 18791 ft 382 kts
2026-05-04 16:31 53.06809 10.12742 17424 ft 372 kts
2026-05-04 16:32 53.14354 10.12989 16724 ft 345 kts
2026-05-04 16:33 53.19014 10.13149 16407 ft 326 kts
2026-05-04 16:33 53.23449 10.13282 15777 ft 321 kts
2026-05-04 16:34 53.27889 10.13429 15079 ft 318 kts
2026-05-04 16:34 53.30094 10.13504 14737 ft 316 kts
2026-05-04 16:35 53.36609 10.13712 13703 ft 311 kts
2026-05-04 16:35 53.43033 10.13400 12669 ft 306 kts 355°
2026-05-04 16:36 53.45147 10.13134 12318 ft 304 kts 355°
2026-05-04 16:36 53.49351 10.12605 11613 ft 301 kts 355°
2026-05-04 16:37 53.53503 10.12077 10985 ft 295 kts 355°
2026-05-04 16:37 53.55513 10.11823 10862 ft 285 kts 356°
2026-05-04 16:37 53.59134 10.13435 10592 ft 266 kts 37°
2026-05-04 16:38 53.61603 10.17968 10014 ft 262 kts 50°
2026-05-04 16:39 53.64692 10.24201 9166 ft 259 kts 50°
2026-05-04 16:39 53.66988 10.28835 8495 ft 256 kts 50°
2026-05-04 16:40 53.69251 10.33403 7972 ft 249 kts 50°
2026-05-04 16:40 53.71466 10.37892 7656 ft 248 kts 50°
2026-05-04 16:41 53.73673 10.42358 7362 ft 247 kts 50°
2026-05-04 16:41 53.76957 10.49045 6922 ft 246 kts 50°
2026-05-04 16:42 53.80820 10.54261 6476 ft 242 kts
2026-05-04 16:43 53.83924 10.52551 6179 ft 240 kts 316°
2026-05-04 16:43 53.85143 10.47707 5872 ft 222 kts 266°
2026-05-04 16:43 53.84769 10.45240 5716 ft 214 kts 242°
2026-05-04 16:44 53.81459 10.37439 5163 ft 189 kts 234°
2026-05-04 16:45 53.79984 10.34031 4856 ft 173 kts 234°
2026-05-04 16:46 53.77976 10.29392 4363 ft 154 kts 234°
2026-05-04 16:46 53.76650 10.26579 3993 ft 152 kts 231°
2026-05-04 16:47 53.75306 10.23819 3606 ft 153 kts 231°
2026-05-04 16:47 53.73965 10.21073 3199 ft 150 kts 231°
2026-05-04 16:48 53.71966 10.16990 2622 ft 146 kts 230°
2026-05-04 16:48 53.71318 10.15668 2423 ft 145 kts 230°
2026-05-04 16:49 53.70045 10.13070 2031 ft 143 kts 231°
2026-05-04 16:49 53.68778 10.10489 1662 ft 142 kts 230°
2026-05-04 16:50 53.67504 10.07942 1154 ft 141 kts 230°
2026-05-04 16:50 53.66252 10.05407 764 ft 140 kts 232°
2026-05-04 16:51 53.65023 10.02867 461 ft 140 kts 231°
2026-05-04 16:51 53.64414 10.01628 354 ft 139 kts 231°
2026-05-04 16:51 53.63189 9.99135 47 ft 125 kts 231°
2026-05-04 16:52 53.62647 9.98026 42 ft 43 kts 229°
2026-05-04 16:52 53.62462 9.97811 42 ft 26 kts 156°
2026-05-04 16:53 53.62455 9.98056 44 ft 7 kts 69°
2026-05-04 16:53 53.62613 9.98394 47 ft 21 kts 51°
2026-05-04 16:54 53.62711 9.98595 47 ft 23 kts 50°
2026-05-04 16:55 53.63082 9.99361 47 ft 0 kts 55°
2026-05-04 16:55 53.63082 9.99362 47 ft 1 kts 55°
2026-05-04 16:56 53.63219 9.99690 48 ft 21 kts 81°
2026-05-04 16:56 53.62805 10.00103 48 ft 27 kts 153°
2026-05-04 16:57 53.62758 10.00225 47 ft 10 kts 59°
2026-05-04 16:57 53.62772 10.00268 46 ft 0 kts 62°